Washington, Georgia, United States (30673)
Lat: 33.74N, Lon: 82.74W
Wx Zone: GAZ039
Local Info
Past Weather Observations for Today

NOTE: This archive is for the closest National Weather Service station to Washington. Information may differ from the station used for current weather conditions.

Click here for Long-term Archive

Time Weather Temperature Dewpoint Humidity Pressure Winds Precip Visibility
18:15
Mostly Cloudy
73°F / 23°C 73°F / 23°C 100% 30.09 in
(1019 mb)
N 4.6 mph
(N 7 kph)
- 10SM
17:55
Overcast
75°F / 24°C 75°F / 24°C 100% 30.09 in
(1019 mb)
N 5.8 mph
(N 9 kph)
- 10SM
17:35
Overcast
75°F / 24°C 75°F / 24°C 100% 30.09 in
(1019 mb)
NNE 3.5 mph
(NNE 6 kph)
- 7SM
17:15
Overcast
75°F / 24°C 75°F / 24°C 100% 30.09 in
(1019 mb)
N 4.6 mph
(N 7 kph)
- 7SM
16:55
Overcast
75°F / 24°C 75°F / 24°C 100% 30.09 in
(1019 mb)
N 5.8 mph
(N 9 kph)
- 10SM
16:35
Overcast
75°F / 24°C 75°F / 24°C 100% 30.09 in
(1019 mb)
NE 3.5 mph
(NE 6 kph)
- 7SM
16:15
Overcast
75°F / 24°C 75°F / 24°C 100% 30.09 in
(1019 mb)
NE 5.8 mph
(NE 9 kph)
- 5SM
15:55
Overcast
75°F / 24°C 75°F / 24°C 100% 30.09 in
(1019 mb)
NE 4.6 mph
(NE 7 kph)
- 7SM
15:35
Overcast
75°F / 24°C 75°F / 24°C 100% 30.09 in
(1019 mb)
NE 4.6 mph
(NE 7 kph)
- 5SM
15:15
Overcast
75°F / 24°C 75°F / 24°C 100% 30.09 in
(1019 mb)
ENE 3.5 mph
(ENE 6 kph)
- 5SM
14:55
Overcast
73°F / 23°C 73°F / 23°C 100% 30.12 in
(1020 mb)
Calm - 1 1/2SM
14:35
Overcast
75°F / 24°C 75°F / 24°C 100% 30.12 in
(1020 mb)
Calm - 3/4SM
14:15
Overcast
75°F / 24°C 75°F / 24°C 100% 30.12 in
(1020 mb)
Calm - 2SM
13:55
Overcast
77°F / 25°C 77°F / 25°C 100% 30.09 in
(1019 mb)
SE 5.8 mph
(SE 9 kph)
- 7SM
13:35
Overcast
79°F / 26°C 79°F / 26°C 100% 30.09 in
(1019 mb)
N 5.8 mph
(N 9 kph)
- 4SM
13:15
Mostly Cloudy
82°F / 28°C 77°F / 25°C 84% 30.09 in
(1019 mb)
NE 5.8 mph
(NE 9 kph)
- 10SM
12:55
Mostly Cloudy
82°F / 28°C 77°F / 25°C 84% 30.09 in
(1019 mb)
N 6.9 mph
(N 11 kph)
- 10SM
12:35
Mostly Cloudy
82°F / 28°C 77°F / 25°C 84% 30.09 in
(1019 mb)
NE 4.6 mph
(NE 7 kph)
- 10SM
12:15
Clear
84°F / 29°C 77°F / 25°C 79% 30.09 in
(1019 mb)
ENE 3.5 mph
(ENE 6 kph)
- 10SM
11:55
Partly Cloudy
84°F / 29°C 77°F / 25°C 79% 30.09 in
(1019 mb)
NE 6.9 mph
(NE 11 kph)
- 10SM
11:35
Partly Cloudy
82°F / 28°C 77°F / 25°C 84% 30.09 in
(1019 mb)
NE 4.6 mph
(NE 7 kph)
- 10SM
11:15
Mostly Cloudy
81°F / 27°C 77°F / 25°C 89% 30.12 in
(1020 mb)
ENE 5.8 mph
(ENE 9 kph)
- 10SM
10:55
Mostly Cloudy
81°F / 27°C 77°F / 25°C 89% 30.12 in
(1020 mb)
NE 4.6 mph
(NE 7 kph)
- 10SM
10:35
Mostly Cloudy
79°F / 26°C 77°F / 25°C 94% 30.12 in
(1020 mb)
NE 5.8 mph
(NE 9 kph)
- 10SM
10:15
Mostly Cloudy
79°F / 26°C 75°F / 24°C 89% 30.12 in
(1020 mb)
ENE 3.5 mph
(ENE 6 kph)
- 10SM
09:55
Overcast
79°F / 26°C 75°F / 24°C 89% 30.12 in
(1020 mb)
NE 3.5 mph
(NE 6 kph)
- 10SM
09:35
Mostly Cloudy
77°F / 25°C 75°F / 24°C 94% 30.12 in
(1020 mb)
NNE 3.5 mph
(NNE 6 kph)
- 10SM
09:15
Partly Cloudy
77°F / 25°C 75°F / 24°C 94% 30.12 in
(1020 mb)
Calm - 10SM
08:55
Clear
77°F / 25°C 75°F / 24°C 94% 30.09 in
(1019 mb)
ENE 3.5 mph
(ENE 6 kph)
- 10SM
08:35
Clear
75°F / 24°C 75°F / 24°C 100% 30.09 in
(1019 mb)
ENE 3.5 mph
(ENE 6 kph)
- 10SM
08:15
Partly Cloudy
75°F / 24°C 75°F / 24°C 100% 30.09 in
(1019 mb)
E 4.6 mph
(E 7 kph)
- 10SM
07:55
Partly Cloudy
73°F / 23°C 73°F / 23°C 100% 30.09 in
(1019 mb)
Calm - 10SM
07:35
Partly Cloudy
73°F / 23°C 73°F / 23°C 100% 30.09 in
(1019 mb)
Calm - 7SM
07:15
Clear
73°F / 23°C 73°F / 23°C 100% 30.09 in
(1019 mb)
Calm - 7SM
06:55
Clear
73°F / 23°C 73°F / 23°C 100% 30.09 in
(1019 mb)
Calm - 4SM
06:35
Partly Cloudy
73°F / 23°C 73°F / 23°C 100% 30.09 in
(1019 mb)
Calm - 5SM
06:15
Overcast
72°F / 22°C 72°F / 22°C 100% 30.09 in
(1019 mb)
Calm - 5SM
05:55
Overcast
72°F / 22°C 72°F / 22°C 100% 30.09 in
(1019 mb)
Calm - 2 1/2SM
05:35
Overcast
72°F / 22°C 72°F / 22°C 100% 30.09 in
(1019 mb)
Calm - 3SM
05:15
Overcast
72°F / 22°C 72°F / 22°C 100% 30.09 in
(1019 mb)
Calm - 3SM
04:55
Mostly Cloudy
73°F / 23°C 73°F / 23°C 100% 30.09 in
(1019 mb)
Calm - 10SM
04:35
Partly Cloudy
73°F / 23°C 72°F / 22°C 94% 30.09 in
(1019 mb)
ENE 3.5 mph
(ENE 6 kph)
- 10SM
04:15
Mostly Cloudy
73°F / 23°C 72°F / 22°C 94% 30.09 in
(1019 mb)
Calm - 10SM
03:55
Mostly Cloudy
73°F / 23°C 72°F / 22°C 94% 30.09 in
(1019 mb)
Calm - 10SM
03:35
Mostly Cloudy
73°F / 23°C 72°F / 22°C 94% 30.06 in
(1018 mb)
Calm - 10SM
03:15
Partly Cloudy
73°F / 23°C 72°F / 22°C 94% 30.06 in
(1018 mb)
Calm - 10SM
02:55
Clear
73°F / 23°C 72°F / 22°C 94% 30.06 in
(1018 mb)
ENE 3.5 mph
(ENE 6 kph)
- 10SM
02:35
Clear
73°F / 23°C 72°F / 22°C 94% 30.06 in
(1018 mb)
ENE 3.5 mph
(ENE 6 kph)
- 10SM
02:15
Partly Cloudy
73°F / 23°C 72°F / 22°C 94% 30.09 in
(1019 mb)
Calm - 10SM
01:55
Mostly Cloudy
73°F / 23°C 73°F / 23°C 100% 30.09 in
(1019 mb)
Calm - 10SM
01:35
Partly Cloudy
73°F / 23°C 72°F / 22°C 94% 30.09 in
(1019 mb)
Calm - 10SM
01:15
Clear
73°F / 23°C 72°F / 22°C 94% 30.06 in
(1018 mb)
Calm - 10SM
00:55
Clear
75°F / 24°C 72°F / 22°C 89% 30.09 in
(1019 mb)
Calm - 10SM
00:35
Partly Cloudy
75°F / 24°C 72°F / 22°C 89% 30.09 in
(1019 mb)
Calm - 10SM
00:15
Mostly Cloudy
77°F / 25°C 72°F / 22°C 83% 30.09 in
(1019 mb)
ENE 3.5 mph
(ENE 6 kph)
- 10SM
Time Weather Temperature Dewpoint Humidity Pressure Winds Precip Visibility


Weather for websites

WeatherForYou.com, LLC is not responsible for any damages or problems caused by this service. Current weather conditions are obtained from the closest station including government and personal stations which may have varying degrees of accuracy. Weather forecasts are derived from the NOAA NDFD. Like all things, this site belongs to Jesus Christ... He just trusts me to maintain it. If you have any questions or comments email webmaster@weatherforyou.com

Copyright © 2014, WeatherForYou.com LLC. All rights reserved.